FW1394 Weather Reports


Display with metric or nautical units.
time (UTC)temp
F
wind
direction
speed
MPH
gust
MPH
rain 1hr
in
rain 24hr
in
rain mn
in
humidity
%
barometer
mb
20260505023046 63 0 0.0 0.0 0.00 0.00 0.00 62 1008.4
20260505022541 63 0 0.0 0.0 0.00 0.00 0.00 62 1008.3
20260505022038 63 0 0.0 0.0 0.00 0.00 0.00 61 1008.5
20260505021552 64 0 0.0 0.0 0.00 0.00 0.00 60 1008.3
20260505021038 64 0 0.0 0.0 0.00 0.00 0.00 59 1008.4
20260505020538 65 0 0.0 0.0 0.00 0.00 0.00 58 1008.5
20260505015542 66 0 0.0 0.0 0.00 0.00 0.00 58 1008.5
20260505015038 66 0 0.0 0.0 0.00 0.00 0.00 57 1008.6
20260505014555 67 0 0.0 0.0 0.00 0.00 0.00 57 1008.6
20260505014040 67 0 0.0 0.0 0.00 0.00 0.00 55 1008.7
20260505013537 67 0 0.0 0.0 0.00 0.00 0.00 55 1008.7
20260505013057 68 0 0.0 0.0 0.00 0.00 0.00 54 1008.7
20260505012540 68 0 0.0 0.0 0.00 0.00 0.00 53 1008.8
20260505012040 68 0 0.0 0.0 0.00 0.00 0.00 52 1008.8
20260505011553 69 0 0.0 0.0 0.00 0.00 0.00 50 1008.8
20260505011041 69 0 0.0 0.0 0.00 0.00 0.00 51 1008.8
20260505010540 69 0 0.0 0.0 0.00 0.00 0.00 49 1008.9
20260505010109 69 0 0.0 0.0 0.00 0.00 0.00 45 1008.9
20260505005538 70 0 0.0 0.0 0.00 0.00 0.00 44 1008.9
20260505005040 70 0 0.0 0.0 0.00 0.00 0.00 43 1008.9
20260505004555 70 0 0.0 0.0 0.00 0.00 0.00 42 1008.9
20260505004038 70 0 0.0 0.0 0.00 0.00 0.00 43 1008.9
20260505003538 70 0 0.0 0.0 0.00 0.00 0.00 43 1009.0
20260505003056 71 0 0.0 0.0 0.00 0.00 0.00 42 1009.1
20260505002537 71 0 0.0 0.0 0.00 0.00 0.00 41 1009.0
20260505002038 71 0 0.0 0.0 0.00 0.00 0.00 43 1009.1
20260505001545 71 0 0.0 0.0 0.00 0.00 0.00 45 1009.1
20260505001037 72 0 0.0 0.0 0.00 0.00 0.00 41 1009.1
20260505000540 72 0 0.0 0.0 0.00 0.00 0.00 39 1009.1
20260505000054 72 0 0.0 0.0 0.00 0.00 0.00 39 1009.1
20260504235540 73 0 0.0 0.0 0.00 0.00 0.00 39 1009.1
20260504235040 73 0 0.0 0.0 0.00 0.00 0.00 38 1009.1
20260504234552 74 0 0.0 0.0 0.00 0.00 0.00 38 1009.1
20260504234041 74 0 0.0 0.0 0.00 0.00 0.00 38 1009.2
20260504233544 74 0 0.0 0.0 0.00 0.00 0.00 38 1009.2
20260504233106 75 0 0.0 0.0 0.00 0.00 0.00 38 1009.2
20260504232542 76 0 0.0 0.0 0.00 0.00 0.00 38 1009.2
20260504232041 77 0 0.0 0.0 0.00 0.00 0.00 37 1009.2
20260504231551 78 0 0.0 0.0 0.00 0.00 0.00 35 1009.2
20260504231041 80 0 0.0 0.0 0.00 0.00 0.00 34 1009.2
20260504230541 81 0 0.0 0.0 0.00 0.00 0.00 33 1009.2
20260504230056 83 0 0.0 0.0 0.00 0.00 0.00 31 1009.2
20260504225542 85 0 0.0 0.0 0.00 0.00 0.00 31 1009.4
20260504225041 86 0 0.0 0.0 0.00 0.00 0.00 31 1009.4
20260504224554 87 0 0.0 0.0 0.00 0.00 0.00 30 1009.4
20260504224043 87 0 0.0 0.0 0.00 0.00 0.00 31 1009.4
20260504223541 87 0 0.0 0.0 0.00 0.00 0.00 31 1009.5
20260504223054 88 0 0.0 0.0 0.00 0.00 0.00 29 1009.3
20260504222540 89 0 0.0 0.0 0.00 0.00 0.00 28 1009.5
20260504222041 90 0 0.0 0.0 0.00 0.00 0.00 30 1009.5
20260504221552 90 0 0.0 0.0 0.00 0.00 0.00 28 1009.6
20260504221040 91 0 0.0 0.0 0.00 0.00 0.00 28 1009.6
20260504220541 91 0 0.0 0.0 0.00 0.00 0.00 27 1009.6
20260504220052 91 0 0.0 0.0 0.00 0.00 0.00 26 1009.6
20260504215543 91 0 0.0 0.0 0.00 0.00 0.00 27 1009.6
20260504215040 92 0 0.0 0.0 0.00 0.00 0.00 26 1009.6
20260504214556 91 0 0.0 0.0 0.00 0.00 0.00 28 1009.7
20260504214045 91 0 0.0 0.0 0.00 0.00 0.00 27 1009.7
20260504213545 91 0 0.0 0.0 0.00 0.00 0.00 28 1009.8
20260504213052 91 0 0.0 0.0 0.00 0.00 0.00 28 1009.8
20260504212541 92 0 0.0 0.0 0.00 0.00 0.00 26 1009.7
20260504212043 93 0 0.0 0.0 0.00 0.00 0.00 26 1009.7
20260504211553 93 0 0.0 0.0 0.00 0.00 0.00 26 1009.7
20260504211041 93 0 0.0 0.0 0.00 0.00 0.00 27 1009.7
20260504210545 93 0 0.0 0.0 0.00 0.00 0.00 25 1009.7
20260504210104 93 0 0.0 0.0 0.00 0.00 0.00 29 1009.8
20260504205545 93 0 0.0 0.0 0.00 0.00 0.00 29 1009.9
20260504205042 94 0 0.0 0.0 0.00 0.00 0.00 28 1009.9
20260504204559 93 0 0.0 0.0 0.00 0.00 0.00 27 1009.9
20260504204040 93 0 0.0 0.0 0.00 0.00 0.00 26 1009.9
20260504203540 92 0 0.0 0.0 0.00 0.00 0.00 26 1010.0
20260504203108 92 0 0.0 0.0 0.00 0.00 0.00 27 1010.1
20260504202542 92 0 0.0 0.0 0.00 0.00 0.00 27 1010.1
20260504202042 91 0 0.0 0.0 0.00 0.00 0.00 28 1010.2
20260504201554 91 0 0.0 0.0 0.00 0.00 0.00 28 1010.3
20260504201042 91 0 0.0 0.0 0.00 0.00 0.00 29 1010.3
20260504200541 90 0 0.0 0.0 0.00 0.00 0.00 29 1010.2
20260504200053 90 0 0.0 0.0 0.00 0.00 0.00 31 1010.2
20260504195542 89 0 0.0 0.0 0.00 0.00 0.00 29 1010.1
20260504195042 89 0 0.0 0.0 0.00 0.00 0.00 29 1010.2
20260504194601 89 0 0.0 0.0 0.00 0.00 0.00 30 1010.2
20260504194042 89 0 0.0 0.0 0.00 0.00 0.00 31 1010.2
20260504193542 88 0 0.0 0.0 0.00 0.00 0.00 29 1010.1
20260504193052 88 0 0.0 0.0 0.00 0.00 0.00 31 1010.1
20260504192545 87 0 0.0 0.0 0.00 0.00 0.00 33 1010.1
20260504192041 86 0 0.0 0.0 0.00 0.00 0.00 33 1010.1
20260504191551 85 0 0.0 0.0 0.00 0.00 0.00 35 1010.2
20260504191042 84 0 0.0 0.0 0.00 0.00 0.00 32 1010.2
20260504190543 84 0 0.0 0.0 0.00 0.00 0.00 33 1010.3
20260504190126 84 0 0.0 0.0 0.00 0.00 0.00 34 1010.3
20260504185540 84 0 0.0 0.0 0.00 0.00 0.00 35 1010.3
20260504185040 85 0 0.0 0.0 0.00 0.00 0.00 36 1010.3
20260504184552 84 0 0.0 0.0 0.00 0.00 0.00 36 1010.3
20260504184045 84 0 0.0 0.0 0.00 0.00 0.00 36 1010.3
20260504183541 84 0 0.0 0.0 0.00 0.00 0.00 37 1010.2
20260504183051 84 0 0.0 0.0 0.00 0.00 0.00 35 1010.2
20260504182540 83 0 0.0 0.0 0.00 0.00 0.00 37 1010.2
20260504182042 82 0 0.0 0.0 0.00 0.00 0.00 40 1010.3
20260504181554 82 0 0.0 0.0 0.00 0.00 0.00 41 1010.3
20260504181042 81 0 0.0 0.0 0.00 0.00 0.00 38 1010.3
20260504180544 81 0 0.0 0.0 0.00 0.00 0.00 41 1010.3
20260504180052 80 0 0.0 0.0 0.00 0.00 0.00 43 1010.4
20260504175543 79 0 0.0 0.0 0.00 0.00 0.00 45 1010.5
20260504175041 79 0 0.0 0.0 0.00 0.00 0.00 41 1010.5
20260504174546 78 0 0.0 0.0 0.00 0.00 0.00 45 1010.5
20260504174041 78 0 0.0 0.0 0.00 0.00 0.00 43 1010.4
20260504173541 78 0 0.0 0.0 0.00 0.00 0.00 40 1010.4
20260504173048 78 0 0.0 0.0 0.00 0.00 0.00 44 1010.4
20260504172540 77 0 0.0 0.0 0.00 0.00 0.00 44 1010.4
20260504172040 76 0 0.0 0.0 0.00 0.00 0.00 46 1010.3
20260504171552 75 0 0.0 0.0 0.00 0.00 0.00 47 1010.3
20260504171042 74 0 0.0 0.0 0.00 0.00 0.00 47 1010.3
20260504170542 73 0 0.0 0.0 0.00 0.00 0.00 48 1010.3
20260504151041 64 0 0.0 0.0 0.00 0.00 0.00 64 1010.3
20260504150540 63 0 0.0 0.0 0.00 0.00 0.00 66 1010.2
20260504141041 54 0 0.0 0.0 0.00 0.00 0.00 79 1009.9
20260504140541 53 0 0.0 0.0 0.00 0.00 0.00 79 1009.8
20260504130542 52 0 0.0 0.0 0.00 0.00 0.00 77 1009.1
20260504110544 53 0 0.0 0.0 0.00 0.00 0.00 74 1009.0
20260504100540 54 0 0.0 0.0 0.00 0.00 0.00 72 1009.0
20260504081607 55 0 0.0 0.0 0.00 0.00 0.00 69 1009.2
20260504081041 56 0 0.0 0.0 0.00 0.00 0.00 68 1009.1
20260504080541 56 0 0.0 0.0 0.00 0.00 0.00 67 1009.1
20260504060123 58 0 0.0 0.0 0.00 0.00 0.00 65 1009.1
20260504050544 60 0 0.0 0.0 0.00 0.00 0.00 62 1009.2
20260504050111 60 0 0.0 0.0 0.00 0.00 0.00 62 1009.3
20260504045544 60 0 0.0 0.0 0.00 0.00 0.00 62 1009.3
20260504045044 60 0 0.0 0.0 0.00 0.00 0.00 62 1009.4
20260504044551 60 0 0.0 0.0 0.00 0.00 0.00 63 1009.4
20260504044042 60 0 0.0 0.0 0.00 0.00 0.00 61 1009.4
20260504043541 60 0 0.0 0.0 0.00 0.00 0.00 61 1009.4
20260504043101 60 0 0.0 0.0 0.00 0.00 0.00 60 1009.3
20260504042542 61 0 0.0 0.0 0.00 0.00 0.00 61 1009.3
20260504042041 61 0 0.0 0.0 0.00 0.00 0.00 61 1009.4
20260504041550 61 0 0.0 0.0 0.00 0.00 0.00 61 1009.3
20260504041041 61 0 0.0 0.0 0.00 0.00 0.00 60 1009.4
20260504040541 61 0 0.0 0.0 0.00 0.00 0.00 60 1009.4
20260504040058 62 0 0.0 0.0 0.00 0.00 0.00 60 1009.3
20260504035541 62 0 0.0 0.0 0.00 0.00 0.00 61 1009.3
20260504035041 62 0 0.0 0.0 0.00 0.00 0.00 60 1009.2
20260504034545 62 0 0.0 0.0 0.00 0.00 0.00 60 1009.3
20260504034041 63 0 0.0 0.0 0.00 0.00 0.00 58 1009.1
20260504033538 63 0 0.0 0.0 0.00 0.00 0.00 58 1009.0
20260504033056 64 0 0.0 0.0 0.00 0.00 0.00 58 1008.9
20260504032538 64 0 0.0 0.0 0.00 0.00 0.00 60 1008.9
20260504032042 64 0 0.0 0.0 0.00 0.00 0.00 59 1008.9
20260504031557 65 0 0.0 0.0 0.00 0.00 0.00 58 1008.9
20260504031038 65 0 0.0 0.0 0.00 0.00 0.00 58 1008.9
20260504030540 65 0 0.0 0.0 0.00 0.00 0.00 57 1008.9
20260504030051 65 0 0.0 0.0 0.00 0.00 0.00 58 1008.9
20260504025540 66 0 0.0 0.0 0.00 0.00 0.00 54 1009.0
20260504025039 66 0 0.0 0.0 0.00 0.00 0.00 54 1009.0
20260504024557 66 0 0.0 0.0 0.00 0.00 0.00 54 1009.1
20260504024040 66 0 0.0 0.0 0.00 0.00 0.00 53 1009.2
20260504023539 66 0 0.0 0.0 0.00 0.00 0.00 53 1009.1